Regional Weather Roundup
Issued by NWS Kansas City/Pleasant Hill, MO

Home | Current Version | Previous Version | Graphics & Text | Print | Product List | Glossary Off
Versions: 1 2 3 4 5 6 7 8 9 10 11 12 13 14 15 16 17 18 19 20 21 22 23 24 25 26 27 28

000
ASUS43 KEAX 281110
RWREAX

WEATHER ROUNDUP FOR EASTERN KANSAS AND NORTHWEST MISSOURI
NATIONAL WEATHER SERVICE KANSAS CITY/PLEASANT HILL MO
600 AM CDT THU APR 28 2016

KSZ040-057-103>105-MOZ028-029-037-043-281200-
...KANSAS CITY METROPOLITAN AREA...

CITY           SKY/WX    TMP DP  RH WIND       PRES   REMARKS
K.C. INTL      CLOUDY    46  40  79 W9        29.79R
K.C. DOWNTOWN  CLOUDY    48  39  71 W13G20    29.79R
LEES SUMMIT    CLEAR     45  38  76 W9        29.79R
OLATHE - IXD   MOCLDY    45  39  79 W7        29.81R
OLATHE - OJC   MOCLDY    44  38  79 W5        29.80R
LAWRENCE       CLOUDY    46  40  79 W13       29.81R

$$

MOZ001>008-011>017-020>025-030>033-038>040-044>046-053-054-281200-
...NORTHERN AND CENTRAL MISSOURI...

CITY           SKY/WX    TMP DP  RH WIND       PRES   REMARKS
ST. JOSEPH     CLOUDY    47  44  90 W12       29.77R
MOSBY            N/A     46  41  81 SW8       29.79R
WARRENSBURG    CLEAR     45  37  76 W10       29.80R
WHITEMAN AFB   PTCLDY    46  43  86 W9        29.78R
CLINTON        CLEAR     48  41  76 SW9       29.82R
SEDALIA        CLEAR     50  43  77 SW10      29.80R
WARSAW         NOT AVBL
CHILLICOTHE      N/A     50  32  50 SW7       29.76R
KIRKSVILLE     CLEAR     48  42  80 SW7       29.75R

$$

MOZ041-047>049-056>058-063>065-088>090-097-281200-
...EASTERN AND SOUTHERN MISSOURI...

CITY           SKY/WX    TMP DP  RH WIND       PRES   REMARKS
ST. LOUIS INTL CLEAR     56  51  84 CALM      29.78R
SPIRIT OF STL  CLEAR     52  51  97 CALM      29.77R
COLUMBIA       CLEAR     50  48  93 W6        29.78R
JEFFERSON CITY CLEAR     53  48  83 W6        29.78R
ROLLA          CLEAR     48  46  93 SW8       29.78R
OSAGE BEACH    CLEAR     50  39  66 SW5       29.81R
SPRINGFIELD    CLEAR     51  43  74 W10       29.86R
JOPLIN         CLEAR     49  42  77 W6        29.88R
WEST PLAINS    CLEAR     50  46  86 MISG      29.84R

$$

IAZ060-094-KSZ022-034>040-054-083-096-NEZ052-066-093-281200-
...KANSAS...SOUTHEAST NEBRASKA AND IOWA...

CITY           SKY/WX    TMP DP  RH WIND       PRES   REMARKS
TOPEKA         MOCLDY    46  39  76 W8        29.83R
MANHATTAN      CLEAR     43  35  73 W10       29.84R
EMPORIA        CLEAR     43  36  76 W10       29.86R
CHANUTE        CLOUDY    48  39  71 W9        29.88R
WICHITA        CLOUDY    49  37  63 NW15      29.90R
OMAHA          CLOUDY    47  45  93 N5        29.73R
LINCOLN        CLOUDY    48  43  82 NW16      29.79R
FALLS CITY     CLOUDY    47  45  93 W16       29.75R
LAMONI         CLOUDY    45  44  97 S8        29.71R FOG
DES MOINES     DRIZZLE   48  42  80 SE3       29.71S

$$





USA.gov is the U.S. government's official web portal to all federal, state and local government web resources and services.